Location: Hokitika
(42.7170°S, 170.9670°E)
Time: 14:38:46
(UTC+13:00)

Cosmos 1818 - Pass Details

Date: 24 January 2019
Orbit: 771 x 802 km, 65.0° (Epoch: 19 February)

Event Time Altitude Azimuth Distance (km) Brightness Sun altitude
Exits shadow 23:47:55 23° 327° (NNW) 1,612 4.9 -22.2°
Maximum altitude 23:51:21 88° 238° (WSW) 792 3.5 -22.5°
Drops below altitude 10° 23:56:46 10° 147° (SSE) 2,351 6.3 -23.0°
Sets 23:59:11 0° 146° (SE) 3,282 7.1 -23.2°
